Location: Casilda
(33.0440°S, 61.1680°W)
Time: 19:09:53
(UTC-03:00)

ISS - Pass Details

Date: 25 November 2023
Orbit: 415 x 417 km, 51.6° (Epoch: 04 December)

Event Time Altitude Azimuth Distance (km) Brightness Sun altitude
Exits shadow 04:07:28 35° 239° (WSW) 699 -2.8 -18.8°
Maximum altitude 04:07:54 37° 220° (SW) 674 -2.8 -18.7°
Drops below altitude 10° 04:11:06 10° 150° (SSE) 1,517 0.2 -18.2°
Sets 04:13:19 0° 141° (SE) 2,387 1.7 -17.8°
